Location: Atbuku
(36.4936°N, 30.4362°E)
Time: 16:49:01
(UTC+00:00)

Helios 1A Rocket - Pass Details

Date: 11 December 2025
Orbit: 433 x 443 km, 98.3° (Epoch: 16 January)

Event Time Altitude Azimuth Distance (km) Brightness Sun altitude
Rises 04:43:25 0° 214° (SW) 2,398 6.0 -3.8°
Enters shadow 04:50:56 - 312° (NW) 2,164 5.2 -2.5°
Exits shadow 05:15:31 -51° 9° (N) 10,549 9.2 1.9°
Maximum altitude 16:10:23 42° 100° (E) 662 2.8 -17.0°
